When you browse on this site, cookies collect data to enhance your experience and personalize the content and advertising you see.
Visit our Privacy Policy to learn more. By continuing to use the site, you agree to this use of cookies and data.
  • In Denmark
  • List of Countries
  • For 7 days
  • Water Temperature
  • Satellite Maps
  • Weather Map
  • Weather Widgets
  • user-avatar
    Login

    Hourly Weather Bahar

    Today, 18 December, Tuesday

    Time Temperature Precipitation Wind Pressure Humidity
    00:00 +1°C° 0 mm 2 mps 702 mmHg 55%
    01:00 +1°C° 0 mm 2 mps 702 mmHg 55%
    02:00 +1°C° 0 mm 2 mps 701 mmHg 54%
    03:00 +1°C° 0 mm 2 mps 701 mmHg 53%
    04:00 +1°C° 0 mm 2 mps 700 mmHg 53%
    05:00 -1°C° 0 mm 2 mps 700 mmHg 51%
    06:00 +2°C° 0 mm 1 mps 700 mmHg 50%
    07:00 +2°C° 0 mm 1 mps 699 mmHg 49%
    08:00 +2°C° 0 mm 1 mps 699 mmHg 48%
    09:00 +2°C° 0 mm 2 mps 699 mmHg 47%
    10:00 +2°C° 0 mm 3 mps 699 mmHg 47%
    11:00 +3°C° 0 mm 3 mps 699 mmHg 45%
    12:00 +1°C° 0 mm 4 mps 699 mmHg 49%
    13:00 +1°C° 0 mm 5 mps 700 mmHg 54%
    14:00 +1°C° 0 mm 6 mps 700 mmHg 59%
    15:00 -1°C° 0.1 mm 6 mps 701 mmHg 65%
    16:00 -1°C° 0.1 mm 6 mps 702 mmHg 71%
    17:00 -2°C° 0 mm 6 mps 703 mmHg 80%
    18:00 -2°C° 0.1 mm 5 mps 704 mmHg 79%
    19:00 -2°C° 0.1 mm 4 mps 704 mmHg 78%
    20:00 -1°C° 0.1 mm 3 mps 704 mmHg 77%
    21:00 -2°C° 0 mm 2 mps 704 mmHg 76%
    22:00 -2°C° 0 mm 2 mps 704 mmHg 75%
    23:00 0°C° 0 mm 1 mps 704 mmHg 75%

    Tomorrow, 19 December, Wednesday

    Time Temperature Precipitation Wind Pressure Humidity
    00:00 0°C° 0 mm 1 mps 704 mmHg 74%
    01:00 -2°C° 0 mm 2 mps 703 mmHg 74%
    02:00 -2°C° 0 mm 2 mps 703 mmHg 74%
    03:00 -2°C° 0 mm 2 mps 703 mmHg 75%
    04:00 -3°C° 0 mm 2 mps 703 mmHg 77%
    05:00 -3°C° 0 mm 2 mps 703 mmHg 79%
    06:00 -1°C° 0 mm 1 mps 703 mmHg 77%
    07:00 -1°C° 0 mm 1 mps 703 mmHg 76%
    08:00 -1°C° 0 mm 1 mps 703 mmHg 74%
    09:00 0°C° 0 mm 1 mps 703 mmHg 71%
    10:00 +1°C° 0 mm 1 mps 703 mmHg 68%
    11:00 +1°C° 0 mm 1 mps 703 mmHg 64%
    12:00 +2°C° 0 mm 1 mps 703 mmHg 64%
    13:00 +2°C° 0 mm 1 mps 703 mmHg 64%
    14:00 +2°C° 0 mm 1 mps 703 mmHg 63%
    15:00 +1°C° 0 mm 1 mps 703 mmHg 66%
    16:00 +1°C° 0 mm 1 mps 704 mmHg 69%
    17:00 -1°C° 0 mm 0 mps 704 mmHg 72%
    18:00 0°C° 0 mm 1 mps 704 mmHg 71%
    19:00 0°C° 0 mm 1 mps 705 mmHg 70%
    20:00 0°C° 0 mm 1 mps 705 mmHg 69%
    21:00 0°C° 0 mm 1 mps 705 mmHg 69%
    22:00 0°C° 0 mm 1 mps 705 mmHg 69%
    23:00 0°C° 0 mm 1 mps 705 mmHg 68%

    Day after tomorrow, 20 December, Thursday

    Time Temperature Precipitation Wind Pressure Humidity
    00:00 0°C° 0 mm 1 mps 706 mmHg 68%
    01:00 0°C° 0 mm 1 mps 706 mmHg 69%
    02:00 -1°C° 0 mm 0 mps 706 mmHg 69%
    03:00 -1°C° 0.1 mm 0 mps 706 mmHg 70%
    04:00 -1°C° 0.1 mm 0 mps 706 mmHg 71%
    05:00 -2°C° 0.1 mm 0 mps 707 mmHg 72%
    06:00 -1°C° 0.1 mm 1 mps 707 mmHg 74%
    07:00 0°C° 0.1 mm 1 mps 708 mmHg 75%
    08:00 0°C° 0.1 mm 1 mps 708 mmHg 77%
    09:00 0°C° 0.1 mm 1 mps 708 mmHg 77%
    10:00 0°C° 0.1 mm 1 mps 708 mmHg 78%
    11:00 +1°C° 0.1 mm 1 mps 708 mmHg 79%
    12:00 +1°C° 0.1 mm 1 mps 708 mmHg 79%
    13:00 -1°C° 0.1 mm 2 mps 708 mmHg 80%
    14:00 -1°C° 0.1 mm 2 mps 708 mmHg 81%
    15:00 -1°C° 0.1 mm 2 mps 708 mmHg 83%
    16:00 0°C° 0.1 mm 1 mps 709 mmHg 85%
    17:00 0°C° 0.1 mm 1 mps 709 mmHg 87%
    18:00 0°C° 0.1 mm 1 mps 709 mmHg 86%
    19:00 -2°C° 0.1 mm 2 mps 709 mmHg 85%
    20:00 -2°C° 0.1 mm 2 mps 710 mmHg 83%
    21:00 -3°C° 0 mm 2 mps 710 mmHg 82%
    22:00 -3°C° 0 mm 2 mps 710 mmHg 81%
    23:00 -3°C° 0 mm 2 mps 710 mmHg 80%

    21 December, Friday

    Time Temperature Precipitation Wind Pressure Humidity
    00:00 -3°C° 0 mm 2 mps 710 mmHg 78%
    01:00 -4°C° 0 mm 2 mps 710 mmHg 77%
    02:00 -4°C° 0 mm 2 mps 710 mmHg 76%
    03:00 -4°C° 0 mm 2 mps 710 mmHg 75%
    04:00 -4°C° 0 mm 2 mps 710 mmHg 74%
    05:00 -4°C° 0 mm 2 mps 710 mmHg 73%
    06:00 -4°C° 0 mm 2 mps 711 mmHg 72%
    07:00 -2°C° 0 mm 1 mps 711 mmHg 72%
    08:00 -2°C° 0 mm 1 mps 711 mmHg 72%
    09:00 -2°C° 0 mm 1 mps 710 mmHg 71%
    10:00 -3°C° 0 mm 2 mps 710 mmHg 70%
    11:00 -3°C° 0 mm 2 mps 710 mmHg 69%
    12:00 -2°C° 0 mm 3 mps 709 mmHg 70%
    13:00 -2°C° 0 mm 3 mps 709 mmHg 71%
    14:00 -2°C° 0 mm 3 mps 708 mmHg 72%
    15:00 -4°C° 0 mm 3 mps 708 mmHg 73%
    16:00 -5°C° 0 mm 3 mps 708 mmHg 74%
    17:00 -5°C° 0 mm 3 mps 708 mmHg 74%
    18:00 -5°C° 0 mm 3 mps 708 mmHg 71%
    19:00 -5°C° 0 mm 3 mps 708 mmHg 68%
    20:00 -6°C° 0 mm 3 mps 708 mmHg 64%
    21:00 -6°C° 0 mm 3 mps 707 mmHg 62%
    22:00 -6°C° 0 mm 3 mps 707 mmHg 59%
    23:00 -6°C° 0 mm 3 mps 706 mmHg 56%

    22 December, Saturday

    Time Temperature Precipitation Wind Pressure Humidity
    00:00 -6°C° 0 mm 3 mps 706 mmHg 54%
    01:00 -6°C° 0 mm 3 mps 705 mmHg 52%
    02:00 -6°C° 0 mm 3 mps 705 mmHg 50%
    03:00 -6°C° 0 mm 3 mps 704 mmHg 49%
    04:00 -6°C° 0 mm 3 mps 704 mmHg 47%
    05:00 -5°C° 0 mm 2 mps 703 mmHg 46%
    06:00 -5°C° 0 mm 2 mps 703 mmHg 44%
    07:00 -5°C° 0 mm 2 mps 703 mmHg 43%
    08:00 -4°C° 0 mm 2 mps 703 mmHg 42%
    09:00 -3°C° 0 mm 2 mps 703 mmHg 41%
    10:00 -2°C° 0 mm 2 mps 702 mmHg 40%
    11:00 -1°C° 0 mm 2 mps 702 mmHg 39%
    12:00 +1°C° 0 mm 2 mps 702 mmHg 40%
    13:00 +1°C° 0 mm 2 mps 701 mmHg 41%
    14:00 +1°C° 0 mm 2 mps 701 mmHg 43%
    15:00 -1°C° 0 mm 2 mps 701 mmHg 44%
    16:00 0°C° 0 mm 1 mps 701 mmHg 45%
    17:00 0°C° 0 mm 1 mps 701 mmHg 46%
    18:00 0°C° 0 mm 1 mps 701 mmHg 46%
    19:00 0°C° 0 mm 1 mps 701 mmHg 46%
    20:00 0°C° 0 mm 1 mps 701 mmHg 46%
    21:00 0°C° 0 mm 1 mps 701 mmHg 46%
    22:00 0°C° 0 mm 1 mps 701 mmHg 46%
    23:00 0°C° 0 mm 1 mps 701 mmHg 46%

    23 December, Sunday

    Time Temperature Precipitation Wind Pressure Humidity
    00:00 0°C° 0 mm 1 mps 701 mmHg 46%
    01:00 0°C° 0 mm 1 mps 701 mmHg 46%
    02:00 0°C° 0 mm 1 mps 701 mmHg 47%
    03:00 0°C° 0 mm 1 mps 700 mmHg 47%
    04:00 0°C° 0 mm 1 mps 700 mmHg 47%
    05:00 -3°C° 0 mm 2 mps 700 mmHg 47%
    06:00 -2°C° 0 mm 2 mps 700 mmHg 47%
    07:00 -2°C° 0 mm 2 mps 700 mmHg 47%
    08:00 -2°C° 0 mm 2 mps 700 mmHg 47%
    09:00 -1°C° 0 mm 2 mps 700 mmHg 46%
    10:00 +1°C° 0 mm 2 mps 700 mmHg 45%
    11:00 +2°C° 0 mm 2 mps 700 mmHg 43%
    12:00 +2°C° 0 mm 2 mps 700 mmHg 44%
    13:00 +2°C° 0 mm 2 mps 699 mmHg 45%
    14:00 +2°C° 0 mm 2 mps 699 mmHg 46%
    15:00 +2°C° 0 mm 1 mps 700 mmHg 48%
    16:00 +1°C° 0 mm 1 mps 700 mmHg 50%
    17:00 0°C° 0 mm 0 mps 700 mmHg 52%
    18:00 0°C° 0 mm 0 mps 701 mmHg 54%
    19:00 0°C° 0 mm 1 mps 701 mmHg 56%
    20:00 0°C° 0 mm 1 mps 701 mmHg 58%
    21:00 0°C° 0 mm 1 mps 702 mmHg 62%
    22:00 0°C° 0 mm 1 mps 702 mmHg 65%
    23:00 0°C° 0 mm 1 mps 702 mmHg 68%
    Show more